Theta_e
320 321 321 323 325 326 327 327 331 332 332 334 336 337 337 337 336 335 334 333 332 332 332 331 332 332 332 331 331 331 330 330 330 330 329 328 326 325 324 323 321 320 318 316 313 312 313 311 309 307 307 307 305 304 304 304 304 305 304 304 304 303 303 301 301 301 300 300 300 300 300 300 300 299 300 299 300 300 300 301 300 302 301 302 301
316 318 318 319 320 323 323 324 327 329 331 333 334 335 336 336 337 336 334 333 333 332 332 332 332 332 332 332 332 331 331 330 330 330 329 328 327 325 324 324 324 323 322 319 314 313 314 312 309 307 307 307 306 305 304 304 304 304 304 304 304 303 302 301 301 301 300 300 300 300 300 300 300 299 299 299 299 300 300 301 300 302 301 302 300
313 315 315 315 316 318 319 322 324 325 329 331 332 333 334 335 336 336 334 334 333 332 332 332 332 332 332 332 332 332 332 331 330 329 329 328 328 326 325 325 324 324 323 321 319 318 318 314 309 306 306 306 305 305 304 304 304 304 303 303 304 303 302 301 301 301 301 301 300 300 300 299 300 299 299 299 299 300 300 301 301 302 301 301 301
311 312 313 313 314 315 316 319 323 323 325 328 329 330 331 333 334 333 332 332 331 332 332 332 333 333 332 333 332 332 332 331 330 330 329 328 328 327 326 326 325 324 323 322 322 322 322 320 316 313 309 306 304 304 303 303 304 304 304 303 303 303 303 302 301 301 301 301 300 300 300 300 299 299 299 299 299 299 300 300 300 301 301 301 301
312 312 312 312 312 313 314 315 319 321 323 325 325 325 327 328 330 332 330 329 329 330 332 332 332 333 333 333 332 332 332 332 331 330 330 329 329 328 327 327 326 324 323 323 323 322 322 323 322 321 318 311 305 304 304 304 304 303 304 304 303 303 303 303 301 301 301 301 300 300 300 300 299 299 299 299 298 299 300 300 300 301 302 301 301
312 312 311 312 311 311 312 313 315 317 321 324 324 325 326 325 328 331 329 329 330 328 332 333 331 332 332 332 332 332 332 332 332 330 330 330 329 328 328 328 327 326 325 324 324 324 324 324 323 323 322 317 309 306 305 304 303 303 303 303 304 303 302 302 302 301 301 301 300 300 300 299 299 299 299 299 298 299 300 300 300 301 301 301 301
312 312 312 312 311 312 311 311 312 314 318 322 325 328 328 326 328 331 329 331 332 330 332 334 332 333 331 331 332 333 332 332 332 331 330 330 330 329 328 328 328 327 326 326 325 324 324 324 324 323 322 320 313 307 307 306 304 303 303 303 303 303 302 302 301 302 301 301 301 300 300 299 299 299 298 298 298 299 300 300 300 301 301 301 301
313 312 312 312 312 312 311 311 311 312 314 317 322 327 328 327 327 328 330 332 333 331 333 333 333 333 330 330 331 332 332 332 332 332 331 331 331 330 329 329 328 328 327 327 327 325 325 324 324 323 323 322 318 311 308 308 306 304 303 303 303 303 302 302 301 301 301 301 300 300 300 299 299 299 298 298 298 299 300 300 300 300 301 301 301
313 312 312 312 312 312 311 312 311 311 312 312 317 323 324 324 323 322 326 331 332 332 333 333 332 333 332 331 330 329 332 333 332 332 332 331 331 331 330 329 329 328 327 328 328 327 325 325 324 324 324 324 322 318 312 310 309 307 304 303 303 303 302 302 302 301 301 301 301 300 300 299 299 299 298 298 298 299 299 300 300 300 301 301 301
312 312 312 312 312 312 311 311 311 311 311 311 313 317 318 318 320 319 321 327 331 332 333 333 333 332 332 332 330 329 331 332 332 332 332 332 332 331 331 331 329 329 328 328 328 328 326 325 325 324 324 324 324 322 319 316 316 314 311 307 303 302 302 302 302 301 301 301 301 300 300 299 299 299 298 298 298 298 299 300 300 300 300 301 301
312 312 312 312 311 312 312 311 311 311 311 311 311 313 314 314 317 319 319 324 329 332 332 333 332 330 329 330 330 331 331 331 331 332 332 331 332 331 331 331 330 330 329 328 328 328 327 327 326 325 324 324 324 324 322 321 321 320 319 316 310 304 302 302 301 302 301 300 301 300 300 300 299 299 298 298 298 298 299 300 300 300 300 301 301
311 311 311 311 311 311 311 311 312 311 311 312 311 311 312 312 314 316 318 321 325 330 331 330 331 329 327 327 329 330 330 330 331 331 331 331 332 332 331 331 331 330 330 329 329 328 328 328 326 326 325 325 324 324 323 322 322 322 322 322 318 310 303 302 301 301 301 302 301 300 300 300 299 299 298 298 298 298 298 299 300 300 300 300 301
313 313 312 312 313 313 313 313 313 313 313 313 314 315 315 313 312 312 315 317 322 327 329 330 332 331 328 326 326 327 328 329 330 330 331 331 332 331 331 332 331 331 331 330 329 329 329 328 328 327 326 325 325 325 324 323 323 323 323 323 323 317 307 302 301 300 301 301 301 301 300 300 299 299 298 298 298 298 298 299 300 300 300 300 300
318 317 317 317 317 318 318 318 317 316 317 317 318 322 322 319 314 311 312 313 320 327 327 328 333 333 332 330 329 330 329 328 328 329 330 330 331 332 332 332 332 332 332 331 330 330 329 329 328 328 327 326 326 326 325 324 323 324 324 323 323 321 313 305 302 301 301 301 301 301 300 299 299 299 298 298 298 298 298 298 299 300 300 300 300
319 320 320 320 320 320 321 320 321 321 320 320 322 325 325 323 319 315 313 312 320 329 325 325 333 334 334 333 333 333 332 331 328 326 328 329 330 332 332 331 332 333 332 331 331 331 331 330 329 329 328 327 327 326 326 325 324 323 324 324 324 323 319 311 305 302 301 301 300 300 301 300 299 299 299 299 298 298 298 298 299 300 300 300 300
320 320 320 320 320 320 321 320 320 322 324 324 326 327 327 327 325 320 318 319 325 330 324 322 330 333 335 333 333 334 333 333 332 329 330 331 330 332 331 331 332 333 333 332 332 332 332 331 330 330 330 329 328 327 327 326 325 324 323 324 324 324 323 319 313 307 303 301 301 300 300 300 300 299 299 299 299 298 298 298 299 300 300 300 300
321 321 321 321 321 320 321 320 319 321 326 328 329 330 328 329 329 324 320 321 327 333 328 323 326 330 333 334 333 333 332 332 333 333 332 332 331 332 331 331 331 332 333 334 333 333 332 332 332 331 331 330 329 329 328 327 326 325 324 324 324 324 324 323 321 316 309 304 301 301 301 300 300 300 299 299 299 298 298 298 298 299 300 300 300
323 323 322 322 322 322 321 319 318 319 325 329 331 331 330 330 330 329 326 320 323 333 333 327 326 327 330 333 334 334 333 333 332 332 333 332 332 332 332 331 330 330 331 334 334 334 333 333 332 332 332 331 331 330 329 328 326 326 326 325 324 324 324 324 323 322 318 310 304 302 301 301 300 300 300 299 299 299 298 298 298 299 299 300 300
324 323 324 325 325 324 321 317 317 320 324 328 331 332 332 332 333 333 332 327 323 330 335 333 330 329 328 331 333 333 334 335 333 332 333 333 332 332 331 330 330 330 331 332 334 335 334 334 333 333 332 332 332 331 330 329 328 327 327 327 326 324 324 324 324 323 322 317 310 305 303 302 301 302 302 300 299 299 299 298 298 298 299 300 300
326 325 325 327 327 324 318 313 317 325 328 329 331 333 334 335 335 333 333 333 329 330 335 336 334 334 332 330 331 332 333 334 334 333 333 333 333 334 332 331 331 330 328 329 332 333 334 334 334 334 333 333 333 331 330 330 329 328 328 328 328 327 325 324 324 324 324 322 317 311 306 304 302 304 305 303 300 299 299 299 298 298 298 299 300
329 329 326 326 326 321 317 316 321 328 331 333 334 336 336 336 335 334 333 333 332 333 335 336 335 335 335 333 333 333 333 334 334 334 334 333 333 334 334 334 334 331 326 327 329 330 332 333 333 334 334 334 333 333 331 330 330 329 329 329 329 328 327 326 325 325 324 324 322 318 313 310 306 306 308 307 303 300 299 299 298 298 298 298 299
332 329 327 326 325 322 322 325 329 332 334 335 336 337 337 336 335 335 335 333 333 333 333 335 335 334 335 335 336 335 335 334 334 334 334 334 334 333 333 334 335 333 329 327 327 327 330 332 332 333 334 333 333 333 332 331 330 329 328 328 329 328 327 327 327 325 324 324 324 322 321 318 314 312 312 311 309 303 299 299 299 298 298 298 299
333 330 328 328 328 327 327 329 333 334 335 335 336 337 337 336 335 335 336 335 334 334 334 334 335 335 335 334 335 336 335 335 335 335 334 334 334 334 333 332 333 333 332 329 326 326 328 329 330 331 332 333 333 334 333 332 332 330 329 328 328 329 328 328 327 326 325 324 324 323 323 323 320 319 317 314 312 308 302 299 299 298 298 298 298
335 331 329 329 329 329 329 330 332 334 335 334 335 335 335 336 336 335 335 335 335 335 334 334 334 336 336 335 335 335 335 335 335 335 335 334 335 334 334 333 333 333 334 332 327 325 325 325 326 328 330 332 333 333 333 333 333 332 331 330 330 330 329 329 328 327 325 324 324 323 323 323 322 322 321 317 315 312 307 301 299 299 298 298 298
334 332 330 329 328 328 329 330 331 332 333 333 333 333 334 335 336 336 335 335 335 335 334 334 334 335 335 336 336 335 335 336 335 335 335 335 335 335 334 334 334 333 334 334 332 329 327 325 326 327 330 331 331 331 332 333 334 333 332 331 330 330 329 329 328 327 326 325 324 323 323 323 322 322 322 321 318 315 311 306 301 299 299 298 298
334 331 331 330 329 328 328 329 330 332 334 334 333 332 332 333 335 336 336 336 336 335 335 334 334 333 334 335 336 336 335 336 335 334 334 335 335 334 334 333 334 334 334 334 335 334 333 332 331 330 331 332 330 329 331 333 334 333 333 332 330 329 327 327 327 328 327 326 325 323 323 323 323 322 322 322 321 319 315 311 305 300 299 299 299
334 332 331 329 329 331 329 327 329 332 333 332 331 330 328 329 332 334 335 336 336 335 335 335 335 334 333 334 335 335 335 335 335 332 331 333 335 334 334 334 333 334 335 335 335 335 335 335 335 333 332 332 330 330 332 333 333 332 333 332 331 329 327 326 327 328 328 327 326 324 323 323 323 323 322 322 322 321 319 316 312 306 301 300 300
333 332 331 328 327 330 329 327 327 330 332 330 328 328 328 329 330 332 334 335 336 336 336 336 336 336 335 334 335 336 336 335 334 331 328 330 335 336 334 334 334 334 335 335 335 335 335 335 335 334 333 332 330 331 332 332 333 333 333 333 332 331 330 328 328 328 328 327 326 324 323 323 323 323 323 322 322 321 320 319 317 313 307 302 300
335 334 332 329 326 326 327 328 329 330 330 331 328 327 329 331 331 332 334 335 335 335 336 337 337 337 337 336 336 335 336 335 334 332 328 329 334 337 336 334 334 334 335 336 335 334 334 335 335 335 334 333 331 331 332 333 333 333 333 334 334 333 332 331 330 329 328 327 326 325 324 323 323 323 323 323 322 321 320 319 318 317 313 307 303
337 335 333 331 327 325 326 329 330 330 330 332 332 330 330 332 333 334 333 333 334 334 335 336 336 336 337 337 337 336 335 335 335 333 331 330 333 336 337 335 334 334 335 335 335 334 334 334 334 334 334 334 332 330 331 332 332 333 333 334 334 334 334 332 332 331 330 329 328 326 325 324 324 323 323 323 322 321 321 320 319 318 316 314 308
336 335 334 331 328 324 324 327 330 332 333 334 335 334 332 332 333 335 334 334 335 336 335 334 334 335 337 337 337 336 336 335 335 334 334 333 332 335 337 336 335 335 335 335 335 335 335 334 333 334 334 333 331 329 330 331 331 331 332 332 333 334 335 334 332 332 331 330 329 328 327 325 324 324 323 323 322 321 321 321 320 319 318 317 313
333 333 334 334 331 327 324 325 329 332 334 335 335 335 334 332 330 331 333 336 337 337 336 335 335 336 338 338 337 337 336 336 335 334 334 334 334 336 337 336 336 336 335 335 335 335 335 336 336 335 334 334 333 330 328 329 329 329 330 331 332 333 334 335 334 334 333 332 331 330 328 327 325 324 324 323 323 322 322 321 321 320 319 319 316
331 331 332 333 333 332 328 326 328 331 333 335 335 334 334 333 330 329 330 334 336 336 336 336 335 337 339 339 339 338 338 338 336 334 335 335 335 336 337 338 337 336 335 336 336 335 335 336 337 336 335 334 335 333 332 330 328 327 328 329 330 331 332 333 335 335 334 334 333 331 330 328 327 326 324 324 323 323 322 322 321 321 321 320 319
330 330 330 332 333 333 332 330 331 332 333 334 335 335 335 333 332 331 330 332 334 334 335 336 335 337 339 339 339 339 339 339 337 336 335 335 336 336 337 337 338 336 336 336 336 336 336 336 336 337 336 336 336 335 335 334 331 327 328 328 329 329 330 331 332 334 335 335 334 333 332 331 329 327 326 324 324 323 323 323 322 321 321 321 320
330 329 328 330 331 332 332 332 332 332 332 334 335 335 336 334 333 332 330 332 333 334 334 336 336 337 338 339 339 338 339 339 339 337 336 336 336 336 337 338 338 338 337 336 336 336 336 336 336 336 336 336 337 336 335 336 335 332 330 329 329 329 329 330 330 331 333 334 335 334 333 332 331 329 328 326 325 324 324 323 323 322 321 321 320
332 331 329 329 330 331 331 332 331 331 332 334 335 335 335 335 334 333 331 330 331 332 333 335 336 336 337 337 338 338 338 338 340 339 337 336 336 336 337 338 338 338 338 337 337 337 336 336 337 337 337 337 338 337 336 336 337 335 334 333 332 331 330 329 330 330 330 332 333 335 335 334 333 331 330 329 327 326 324 324 323 323 322 321 320
332 332 331 330 330 331 332 332 332 332 332 332 334 334 334 333 333 332 331 329 329 328 330 333 336 337 337 336 336 337 338 338 339 340 339 338 336 336 337 337 338 338 338 338 338 338 338 338 338 338 337 338 338 338 337 336 337 337 337 336 335 334 333 332 331 331 330 330 331 333 334 334 333 332 332 330 329 327 326 325 324 323 323 322 321
331 332 333 333 332 331 331 331 332 332 332 332 333 334 334 334 334 333 331 331 330 329 328 329 333 336 338 338 336 337 338 339 339 339 340 339 338 337 337 337 338 337 337 338 339 339 339 339 339 338 337 337 337 339 339 338 337 337 337 337 336 335 335 334 332 332 331 330 330 331 333 333 334 333 332 332 331 329 327 326 325 324 323 323 322
326 328 330 332 332 332 332 332 332 332 332 332 333 334 334 334 334 334 333 332 333 332 330 328 328 331 334 337 336 337 338 339 339 340 340 340 339 339 338 337 337 337 337 337 337 337 338 338 339 338 338 337 337 338 339 339 338 337 337 337 337 336 335 334 333 333 332 330 329 330 331 332 333 334 334 333 333 331 329 328 326 325 324 324 323
321 323 324 326 327 328 329 330 331 331 331 331 333 334 334 334 334 334 333 333 333 334 333 333 330 329 329 332 334 335 336 337 338 339 339 339 339 339 338 338 337 336 336 336 336 337 337 337 338 338 338 338 338 338 339 339 339 338 337 337 337 336 335 335 335 334 334 332 329 329 330 331 332 333 334 334 333 332 331 329 327 326 326 325 324
319 320 320 321 322 322 323 324 325 326 328 329 331 333 332 333 334 334 333 333 333 333 334 334 333 332 332 332 332 331 332 334 335 335 335 335 335 335 337 339 338 338 337 336 336 337 336 336 336 337 337 338 338 338 338 338 339 339 337 336 337 336 335 335 335 335 335 333 332 330 329 329 330 331 333 333 333 333 332 331 329 328 327 326 324
318 318 319 319 319 320 320 320 321 322 323 323 325 326 326 327 329 330 331 331 331 332 333 333 333 333 334 334 333 331 330 331 332 332 331 331 331 331 333 335 336 338 338 337 337 336 335 335 337 337 337 337 338 337 338 337 336 338 338 336 336 336 335 335 336 335 335 335 334 332 331 329 328 329 331 332 333 333 333 332 331 329 328 326 325
317 317 318 318 318 318 319 319 319 320 320 320 321 321 321 322 322 324 326 327 328 330 331 332 332 333 333 334 334 333 332 331 331 331 331 330 329 329 329 330 330 333 335 336 337 337 336 336 337 337 337 337 337 336 337 337 334 335 338 337 336 336 335 336 336 335 335 334 334 333 333 332 330 328 329 330 331 333 332 332 331 330 329 328 326
315 316 316 317 317 317 318 318 318 319 319 319 320 320 320 320 320 320 321 322 323 326 328 329 331 332 334 335 335 335 334 333 332 333 332 332 331 330 329 328 328 328 329 331 333 336 337 337 337 337 337 337 337 337 337 337 335 333 335 336 336 336 335 335 335 335 335 334 334 333 333 333 333 330 328 328 329 330 329 329 330 329 329 329 327
313 314 315 315 316 316 317 317 317 317 318 318 319 319 319 319 319 319 319 319 320 321 323 324 326 328 330 332 333 334 335 334 333 333 333 333 332 331 330 329 328 327 327 327 328 329 332 334 336 337 336 335 336 337 336 336 337 336 334 332 332 334 335 334 332 332 334 334 334 334 333 334 334 332 329 327 328 329 328 327 328 329 328 327 327
313 313 313 314 315 315 315 315 316 316 316 316 317 317 317 317 318 318 318 318 319 319 319 320 321 322 323 324 326 327 329 330 331 332 333 333 334 334 333 332 330 329 327 327 326 326 327 329 331 333 333 334 335 335 334 334 336 337 336 333 330 331 332 331 328 329 332 333 333 334 334 334 335 333 332 330 328 328 327 327 327 328 328 327 326
311 312 312 313 314 314 315 314 315 314 314 314 314 314 315 315 316 316 316 317 317 317 317 317 317 318 318 319 319 320 321 322 324 326 326 327 330 332 334 334 333 332 331 330 328 327 326 327 328 329 329 331 332 333 333 334 335 336 337 336 335 333 332 332 331 331 332 333 333 334 334 334 334 334 333 332 332 330 328 328 328 329 329 328 327
310 310 310 311 312 313 314 314 314 314 312 311 312 312 312 312 313 313 314 314 314 313 313 313 313 314 314 314 315 315 316 317 318 319 319 320 322 324 327 329 329 331 332 332 332 330 328 328 328 329 329 328 328 330 332 334 336 338 338 337 337 337 337 335 334 334 334 334 334 334 334 333 333 334 334 333 332 332 331 329 328 329 330 329 328
308 309 309 309 310 311 312 313 314 314 312 311 310 310 310 310 311 311 310 310 311 311 312 312 312 312 312 312 311 311 312 312 313 313 313 314 314 316 317 319 322 325 327 328 330 330 331 331 331 331 331 330 329 329 330 331 332 334 337 337 337 337 338 337 336 334 333 334 334 334 334 333 333 334 335 334 333 333 333 332 329 329 330 330 329
308 308 309 309 309 310 310 311 312 313 312 311 310 310 310 310 310 310 310 311 312 313 314 314 313 314 313 313 312 312 312 312 312 311 311 311 312 312 312 313 315 318 320 322 324 326 327 329 330 331 332 332 332 332 331 331 330 331 333 335 335 336 338 337 336 334 333 334 334 333 333 334 332 332 334 334 334 333 332 332 332 330 330 331 331
307 307 307 307 308 309 310 310 311 311 311 310 311 311 311 311 311 312 312 313 313 314 315 316 316 316 315 314 314 314 314 314 313 314 313 313 313 313 314 316 319 318 317 316 317 322 326 327 327 329 330 330 332 332 331 332 332 332 332 332 333 335 337 337 335 334 333 334 334 332 332 333 333 332 332 333 334 333 332 332 332 331 330 331 331
Wind_Speed
15 14 13 12 11 10 10 10 10 11 13 13 11 10 10 9 10 9 9 10 10 11 11 12 13 12 12 12 11 9 7 7 9 9 8 8 7 9 12 12 12 11 11 10 9 8 8 8 8 8 8 9 9 9 9 9 9 9 9 9 10 10 10 10 10 9 9 8 8 9 9 9 9 9 10 10 11 11 12 13 13 13 13 15 16
16 15 13 12 11 10 10 10 9 9 11 11 11 11 10 9 9 8 8 8 8 9 10 10 11 12 11 12 11 9 7 7 7 8 7 6 6 9 11 11 10 10 10 10 10 10 9 9 8 7 7 8 8 8 8 8 8 8 8 8 9 9 9 9 9 8 8 8 8 8 8 8 8 8 9 9 10 10 11 12 11 12 14 15 16
16 16 15 12 11 10 10 10 9 9 9 10 10 10 10 9 8 8 8 7 7 8 8 9 10 10 10 11 10 8 7 6 6 6 7 6 5 7 10 11 10 10 10 11 11 10 10 9 9 9 8 7 7 6 6 6 6 7 7 7 7 8 9 9 8 8 7 7 7 7 7 7 7 7 8 8 9 10 10 11 11 12 13 15 15
16 16 15 14 12 11 10 10 10 10 9 10 10 9 9 8 8 7 7 6 6 7 7 8 8 8 9 9 8 8 7 6 5 5 5 6 4 4 6 9 11 11 10 10 11 11 9 9 9 9 9 8 7 5 5 4 5 5 6 6 6 6 7 8 8 7 6 6 6 6 6 6 6 6 6 7 8 9 10 10 11 12 13 15 15
16 16 15 14 13 12 11 11 10 10 9 9 9 9 9 8 7 7 6 6 4 4 6 7 7 7 7 7 8 7 6 6 5 4 4 5 4 3 3 4 7 10 11 10 11 10 10 9 8 8 8 8 8 6 5 4 4 4 5 5 6 6 6 6 7 7 6 5 6 6 6 6 5 5 5 6 7 8 9 10 10 11 13 14 15
17 16 16 15 14 13 12 12 11 10 10 9 9 9 8 7 7 6 5 5 4 3 4 5 6 6 5 6 6 6 6 5 4 4 4 4 3 3 3 3 2 5 7 9 10 9 9 9 8 7 6 7 7 7 6 5 4 4 3 4 4 5 5 5 6 6 6 5 5 6 5 5 5 4 5 6 7 7 8 9 9 11 12 13 14
17 16 16 15 15 14 13 13 12 11 11 10 10 9 8 7 6 5 5 5 4 3 3 3 4 4 3 4 4 5 6 5 3 3 3 3 3 2 3 3 2 2 2 4 7 8 7 8 9 8 7 6 6 7 7 6 5 5 4 3 3 4 5 5 5 5 5 5 4 5 4 4 4 4 4 5 6 7 7 8 9 10 11 13 13
18 17 16 16 15 15 14 14 13 12 13 11 11 10 9 8 7 6 5 4 4 3 3 2 3 3 2 2 2 3 4 4 4 3 2 2 2 2 3 3 2 3 4 1 2 4 6 6 7 7 7 6 6 7 7 6 6 6 6 4 4 4 5 5 5 5 5 5 5 5 4 4 3 3 4 5 6 6 7 7 8 9 11 12 12
19 18 17 17 16 15 15 15 14 14 14 12 12 12 11 10 8 7 6 5 5 4 4 3 2 2 1 1 1 1 2 2 3 4 3 2 2 2 2 3 3 3 4 4 2 0 3 5 6 6 5 5 6 6 6 6 6 7 7 7 5 5 4 5 5 5 5 5 5 6 5 4 4 3 3 4 5 6 6 6 7 8 10 11 12
20 20 19 18 18 17 16 16 15 16 15 14 14 14 13 13 11 10 8 7 7 6 5 4 3 3 2 1 1 0 1 2 2 3 3 3 3 3 3 3 3 4 3 4 5 3 2 2 4 4 4 4 4 4 5 5 5 6 6 7 6 5 5 4 3 4 5 5 6 6 5 5 4 4 4 4 5 5 5 6 6 7 8 10 11
21 21 20 20 20 19 18 18 17 17 16 15 16 16 16 15 14 13 12 10 9 8 7 5 5 5 3 2 2 2 2 3 3 3 3 3 4 4 4 4 4 4 4 5 5 5 4 3 2 3 1 1 3 3 3 4 4 5 5 6 6 5 4 3 3 3 5 6 5 5 5 5 4 4 4 4 4 5 5 5 5 6 7 9 10
23 22 22 21 21 20 20 20 20 19 18 18 18 18 18 18 17 17 15 14 12 10 9 7 6 6 5 4 4 4 4 4 4 5 5 5 5 5 5 5 5 5 5 5 5 5 5 5 4 3 4 5 2 2 2 3 3 3 4 4 5 4 4 3 2 1 2 4 4 5 5 5 4 4 4 4 4 5 5 5 4 5 6 8 9
24 24 24 23 22 21 21 21 21 21 20 19 18 19 19 19 20 20 18 18 15 13 12 9 7 7 6 6 5 5 6 7 7 6 6 6 6 6 6 6 6 6 6 6 7 6 5 6 5 4 6 8 6 3 2 2 2 2 3 3 4 4 3 3 2 1 0 1 3 4 4 4 4 5 5 5 5 4 5 4 4 4 5 7 8
25 25 25 24 23 21 22 22 22 22 21 19 18 19 19 19 21 21 21 20 18 16 15 11 9 9 8 6 6 7 7 8 8 7 6 6 5 5 6 6 7 8 7 7 8 8 7 7 6 5 6 7 7 5 3 3 3 1 1 2 2 3 3 2 2 2 1 1 2 3 4 4 4 4 5 5 5 5 5 4 3 3 4 5 7
25 24 24 24 23 23 22 23 22 22 20 19 19 19 17 17 18 20 21 21 18 16 17 14 11 9 9 8 7 7 8 7 8 7 5 5 5 4 4 4 7 8 8 9 9 9 8 8 8 7 7 7 8 7 8 6 4 2 2 1 1 2 2 3 2 2 2 2 2 3 3 4 4 4 4 5 5 5 5 4 4 3 3 4 6
23 23 23 24 24 23 22 24 24 22 20 18 18 17 16 15 16 18 19 19 16 16 18 16 14 11 10 9 7 7 8 7 7 7 6 7 7 6 4 3 5 7 8 9 9 9 9 9 10 9 9 9 9 9 8 8 7 6 5 5 2 1 1 2 2 2 2 2 3 3 3 4 4 4 4 5 5 5 5 5 4 3 3 3 4
23 23 23 24 24 22 21 23 24 22 19 17 17 16 16 15 15 17 18 17 16 15 16 16 16 15 13 10 8 8 8 6 7 8 7 9 9 9 8 5 4 6 7 8 8 9 9 9 11 10 11 11 11 11 9 9 11 10 7 7 5 3 2 2 2 2 2 3 3 4 4 4 4 4 5 5 5 5 5 5 5 4 3 3 3
24 24 24 24 23 21 20 22 24 23 19 17 17 16 16 17 16 16 17 17 16 15 15 15 16 17 17 15 12 10 7 6 7 7 8 10 10 11 11 8 7 7 7 7 9 9 9 9 10 10 11 12 12 13 11 10 12 10 8 6 6 6 5 4 3 2 2 3 4 5 5 5 5 5 5 5 5 6 6 6 6 5 4 3 3
25 25 24 22 20 19 19 21 22 21 18 18 18 17 17 17 17 16 16 17 17 16 16 15 14 16 18 18 17 15 12 9 9 7 8 10 11 10 10 10 9 8 7 7 8 10 9 9 10 10 11 11 12 13 14 13 12 12 12 10 8 8 8 7 6 4 3 3 4 5 6 6 6 6 6 5 6 6 6 6 6 6 5 4 3
21 22 20 18 17 17 18 20 20 18 17 18 18 17 17 17 17 16 16 16 17 17 17 16 15 15 16 17 18 18 17 14 14 12 10 11 11 11 11 10 10 9 7 6 8 9 9 8 9 10 11 11 11 13 14 13 13 14 15 14 11 10 10 10 9 7 5 5 5 5 7 7 7 7 7 6 6 7 7 7 7 7 6 6 4
15 16 16 15 16 17 18 18 18 17 17 18 18 17 16 17 18 17 17 17 16 15 16 17 17 16 15 15 14 15 16 15 15 15 14 13 13 12 12 11 10 10 8 6 7 9 10 9 8 9 11 11 11 12 14 13 12 13 14 14 12 12 11 11 11 11 9 7 6 6 7 8 8 9 9 8 7 7 7 7 8 7 7 7 6
11 11 13 13 15 16 16 16 16 17 18 18 17 16 17 18 19 18 18 18 16 15 16 16 17 17 16 15 14 13 15 15 15 15 15 16 16 14 13 12 12 12 11 10 10 10 11 10 10 9 10 11 11 12 14 15 13 12 14 13 12 12 12 12 12 12 11 10 9 8 8 8 9 10 10 9 8 8 8 8 8 8 8 8 7
10 10 12 12 13 14 15 16 17 17 18 18 17 17 17 18 19 19 19 18 17 16 16 16 16 17 16 16 16 15 16 16 15 15 16 17 17 15 14 13 13 13 13 14 13 12 12 12 12 12 11 11 11 11 12 15 15 15 15 14 13 14 14 14 13 12 12 12 11 11 10 9 10 10 10 11 10 9 9 9 9 9 9 9 8
12 12 12 12 13 13 15 17 18 19 19 19 18 18 18 19 19 20 19 18 17 17 16 16 15 15 15 15 16 16 17 17 16 17 17 16 16 16 15 13 13 13 12 15 15 15 15 15 14 14 13 11 11 12 12 13 16 16 16 16 16 17 17 16 15 14 13 12 13 13 12 11 11 11 11 11 12 11 10 10 10 10 10 10 10
15 15 14 13 13 14 16 18 19 20 20 19 18 18 18 19 19 19 19 18 18 18 18 17 15 14 15 15 15 16 17 17 17 18 18 17 17 18 17 14 14 14 12 14 16 16 16 16 14 12 12 11 11 12 11 11 14 14 14 16 17 18 18 16 16 16 15 14 14 15 14 13 13 13 12 11 12 12 11 11 11 11 11 11 10
16 17 16 15 15 15 17 18 20 21 20 19 19 19 19 19 19 19 20 19 18 18 18 17 16 15 15 16 16 17 17 18 19 19 18 18 18 18 18 16 16 16 14 14 15 15 16 15 14 12 11 11 11 11 9 9 11 11 12 15 16 17 18 17 15 16 16 16 16 16 16 15 14 13 13 12 12 12 12 12 12 12 12 12 11
18 18 18 18 17 16 16 18 21 22 21 20 19 20 21 20 20 20 20 19 18 18 18 17 17 17 16 15 16 17 18 18 18 19 18 18 18 18 18 17 17 17 16 15 15 16 16 14 14 14 12 11 11 10 9 9 10 9 10 14 14 14 16 16 15 16 16 17 18 18 18 17 15 14 13 13 14 14 12 13 14 14 13 12 12
20 21 21 21 20 19 17 18 20 23 22 21 21 20 19 20 20 19 20 20 19 19 19 18 18 17 17 17 16 16 17 18 17 18 19 18 18 18 19 18 18 17 16 16 16 16 15 14 14 15 13 11 11 11 10 9 8 7 8 12 13 12 13 14 14 14 16 17 17 18 19 19 18 16 15 14 15 15 14 14 15 15 14 13 13
21 22 23 23 23 22 20 20 21 22 23 22 21 21 20 20 20 20 21 21 21 20 19 19 18 18 17 17 18 17 17 17 16 17 19 19 17 18 20 20 20 19 17 16 16 14 13 14 14 14 14 13 12 11 11 10 9 7 7 9 10 10 11 13 13 13 13 14 15 17 18 19 20 19 17 15 15 17 16 15 15 16 15 14 14
21 23 24 24 24 24 23 22 21 22 22 22 22 22 22 21 21 21 22 23 23 22 21 21 20 19 18 17 18 18 17 17 18 17 18 19 19 18 19 20 21 21 20 18 17 14 13 14 14 14 14 15 14 13 13 13 11 10 9 8 9 9 9 12 14 13 13 13 14 16 17 18 20 21 20 17 16 17 17 16 15 17 17 16 15
20 21 23 24 25 26 25 24 22 21 21 21 21 21 21 22 22 22 22 22 21 21 21 22 21 20 20 19 19 19 17 17 18 18 17 19 20 19 19 20 21 22 21 20 21 18 14 14 16 15 15 16 17 15 14 15 14 12 11 9 9 9 9 11 15 15 14 14 14 15 16 18 19 21 21 20 18 17 17 16 16 16 16 16 15
21 20 20 20 21 24 26 25 24 23 22 22 22 22 21 23 24 24 22 19 18 19 19 20 19 18 18 18 18 18 17 16 18 19 18 17 18 18 18 19 21 23 22 22 24 22 18 16 17 16 15 17 19 19 17 18 17 16 15 13 11 11 11 11 14 16 15 14 14 15 15 16 18 19 21 21 20 20 19 18 17 17 16 15 14
24 22 21 19 17 20 24 26 25 25 24 23 23 23 23 23 24 24 23 21 20 20 20 20 19 17 17 17 16 17 16 16 18 19 19 18 18 17 17 18 21 23 23 22 24 25 22 19 18 17 16 17 21 22 21 21 21 19 17 15 14 14 13 12 13 14 15 15 15 16 16 16 17 18 19 21 21 21 21 20 20 20 19 17 15
23 23 23 20 16 18 21 22 23 24 25 23 21 22 22 22 22 22 23 23 22 22 22 21 20 19 18 18 18 17 17 17 18 20 21 21 20 19 19 19 19 22 24 23 23 24 23 21 20 19 17 18 21 22 21 22 23 21 18 18 17 16 16 15 15 14 14 15 16 16 17 17 17 18 19 20 21 22 23 23 23 23 22 21 19
17 19 22 20 18 20 21 20 22 24 24 23 21 21 20 20 21 21 21 22 23 23 24 23 23 21 21 21 20 19 19 19 19 19 20 21 22 21 21 21 20 21 23 25 24 24 23 22 21 20 19 19 20 20 19 21 22 20 19 20 20 19 18 17 17 16 15 15 16 17 18 19 18 18 18 19 20 21 22 24 25 25 25 24 23
13 14 17 19 20 21 21 21 21 23 24 22 21 20 20 21 21 20 21 22 23 24 24 24 24 24 23 23 22 22 21 21 20 19 20 21 22 22 23 23 22 21 21 23 24 24 24 23 22 21 20 20 20 20 18 20 22 20 18 19 20 21 21 20 19 19 18 17 17 18 19 20 20 19 19 20 21 21 22 23 25 26 27 26 25
11 12 14 17 18 19 20 20 20 21 23 22 21 21 22 22 21 21 21 22 23 24 25 24 24 24 24 24 23 22 21 21 21 21 21 20 21 23 24 23 22 22 22 22 22 23 24 25 24 23 23 23 22 21 19 20 22 20 17 17 18 19 21 22 21 20 20 19 19 20 21 22 22 22 21 21 22 23 23 23 24 26 28 28 27
10 10 11 13 15 17 18 19 19 20 21 21 20 20 21 21 21 21 20 21 22 24 25 25 24 23 22 22 23 23 22 21 22 22 22 21 21 23 24 23 22 23 24 23 22 22 22 24 24 24 25 25 24 23 21 20 20 19 19 20 19 17 18 20 22 24 24 22 20 20 22 23 23 23 23 22 23 24 24 24 25 26 28 29 29
10 11 11 12 13 15 16 17 18 18 19 19 18 19 19 20 20 20 20 20 21 22 24 25 26 26 24 23 23 23 22 21 21 21 22 22 22 22 23 24 24 24 25 24 24 23 22 24 24 25 26 25 25 24 22 21 21 19 20 23 22 19 17 18 21 23 25 24 22 21 22 23 24 24 23 24 24 25 26 26 27 27 28 29 30
12 13 14 14 14 14 15 15 16 17 18 18 17 17 18 19 19 20 20 20 20 20 21 22 24 26 27 27 27 26 26 25 24 23 23 23 23 23 23 23 24 25 25 24 24 23 23 24 25 25 25 25 24 23 22 22 22 21 20 21 23 22 19 17 18 18 19 21 22 22 22 23 25 26 26 26 27 27 28 28 29 29 29 29 30
15 16 16 17 17 17 17 17 17 17 18 17 16 17 17 17 17 18 18 18 19 20 21 21 22 23 24 26 28 30 30 30 30 29 28 27 27 26 24 23 24 24 24 24 24 24 24 24 24 24 23 23 24 24 24 25 24 21 20 21 25 26 22 19 20 18 17 18 20 22 23 24 25 27 28 29 28 28 28 30 31 31 30 29 28
19 19 19 19 20 20 20 19 19 20 20 19 19 19 18 18 18 18 18 19 19 20 21 21 21 22 23 24 27 29 30 31 31 32 32 32 32 30 27 26 26 26 25 25 26 26 25 25 24 23 23 24 24 24 25 27 26 22 22 23 25 25 22 21 23 22 19 19 19 20 22 24 25 27 29 30 29 29 30 30 30 30 29 27 26
22 22 22 22 22 23 23 23 23 23 23 23 24 23 22 21 22 22 21 21 21 21 22 23 23 23 23 24 25 26 28 30 30 31 31 32 33 33 33 32 31 30 30 29 28 27 27 27 26 25 25 25 26 27 27 27 28 27 24 23 22 22 21 21 23 25 23 21 20 18 18 21 24 27 29 30 31 31 31 30 28 27 27 26 26
26 26 27 27 26 26 26 26 26 27 27 26 27 26 25 25 25 25 25 24 24 23 23 24 24 24 24 24 24 25 25 27 28 28 29 31 32 33 34 35 36 35 36 35 34 32 30 30 29 28 27 26 26 28 28 28 30 30 28 26 25 23 22 21 23 24 23 23 21 18 17 18 22 27 30 30 31 32 31 29 27 26 25 25 26
21 22 24 27 29 30 31 31 30 30 30 30 29 28 27 27 27 28 28 28 28 27 26 26 26 26 25 25 25 26 26 27 27 28 29 29 30 32 34 35 37 38 39 40 40 40 38 37 34 32 32 32 31 31 31 31 30 30 32 34 32 26 23 24 27 24 20 22 25 21 18 17 19 24 29 30 31 32 32 30 27 25 25 25 26
14 14 17 19 20 23 27 30 33 33 33 32 32 31 30 30 31 31 31 31 32 32 32 31 31 31 31 30 30 30 30 30 29 29 30 29 29 31 33 34 36 38 40 42 43 44 44 45 44 42 41 40 38 37 38 37 34 33 34 36 37 35 31 30 33 30 24 25 27 24 20 20 19 21 26 29 31 32 32 30 28 26 25 25 25
12 12 14 14 13 14 17 21 26 30 32 31 31 30 30 31 32 33 34 34 35 35 35 35 35 35 36 35 36 36 36 36 35 35 35 35 33 32 33 34 35 35 37 40 41 43 45 46 48 49 48 47 45 42 41 39 38 37 36 36 36 37 37 35 33 31 28 28 31 30 27 25 25 25 24 23 25 29 31 31 29 27 27 26 25
12 13 15 16 15 14 14 14 17 22 26 26 26 25 25 26 28 30 31 32 32 32 32 33 33 34 34 35 36 37 38 39 39 40 41 41 41 40 40 40 40 38 38 39 39 41 43 43 44 46 47 48 48 46 44 40 38 37 37 37 33 31 33 34 32 29 26 27 33 35 32 29 28 29 28 23 21 23 27 31 32 30 29 28 27
13 14 15 16 17 17 17 15 14 15 18 21 23 22 22 23 25 26 27 27 26 26 26 27 28 29 31 32 33 34 36 38 39 41 42 43 44 45 45 46 46 45 44 43 42 42 43 42 42 43 43 44 44 45 44 43 43 42 41 38 33 29 31 33 32 33 31 30 32 34 34 33 30 29 29 28 27 25 24 28 34 34 31 30 29
14 14 14 14 14 15 16 15 14 15 16 18 20 20 20 22 23 24 23 23 22 22 23 24 26 27 30 31 33 34 36 38 40 41 42 43 45 47 48 49 50 50 49 47 46 46 46 45 45 45 45 44 43 43 43 42 43 44 46 47 42 36 34 33 33 36 38 35 33 34 36 37 35 32 30 30 32 30 24 24 32 36 34 32 32
13 12 11 11 12 13 14 15 16 18 18 16 15 16 18 19 20 21 20 19 20 21 21 22 24 26 29 32 34 36 37 39 40 41 42 43 46 48 48 47 47 49 50 50 51 49 46 45 46 46 47 47 45 45 45 43 42 41 43 46 47 46 46 43 38 38 41 40 39 39 39 40 39 38 36 33 32 30 26 25 32 38 38 35 34
Wind_Direction
162 160 160 162 165 164 157 147 147 153 147 145 149 145 143 141 135 128 122 115 111 111 107 103 98 93 90 90 94 95 94 96 96 97 90 88 94 92 94 95 91 91 90 87 91 103 112 114 111 114 117 123 126 124 124 125 124 123 124 126 127 127 124 122 121 119 113 106 97 88 83 78 76 74 69 65 66 62 55 50 43 41 40 43 51
165 161 160 161 165 167 160 150 150 155 150 146 147 145 143 140 137 134 128 121 116 112 109 108 104 101 96 89 92 94 92 91 93 104 103 99 94 83 87 93 90 92 93 87 89 101 110 110 111 114 112 112 115 118 123 127 129 128 128 128 130 133 131 128 125 125 123 114 104 95 88 81 77 72 69 69 69 65 58 51 44 43 43 45 50
168 164 162 163 167 169 168 162 157 156 153 150 145 143 142 140 141 138 134 131 123 114 111 110 107 107 103 94 95 96 90 92 92 97 104 109 103 84 84 87 85 86 93 94 93 99 104 102 106 110 109 108 104 107 117 126 134 136 135 134 134 135 137 136 132 129 129 121 108 99 91 84 81 75 74 74 72 68 61 52 46 44 44 46 50
173 170 167 169 174 175 176 174 167 163 160 156 152 147 144 146 146 139 134 134 129 124 115 110 111 112 107 102 102 99 95 96 90 90 104 115 113 86 79 82 79 79 86 93 92 93 96 97 106 112 107 106 110 112 117 124 135 141 142 143 141 137 137 140 140 136 134 128 113 103 97 92 88 84 81 78 75 71 64 55 48 46 45 46 49
178 178 174 176 181 182 184 184 179 175 171 165 159 151 148 149 147 145 143 137 133 128 115 110 110 115 116 110 106 102 102 99 93 91 97 112 124 113 99 90 75 73 77 84 85 86 87 85 97 117 111 104 110 115 119 123 130 140 140 143 145 142 139 138 141 144 141 130 118 110 104 99 97 93 87 84 81 75 67 58 50 47 47 46 48
184 185 183 184 187 190 191 193 193 187 182 176 170 165 159 156 151 152 155 148 149 131 118 115 105 112 118 111 112 110 107 107 97 93 97 108 124 129 138 150 112 77 71 74 82 85 84 81 83 95 95 93 99 103 107 109 113 125 137 142 140 143 143 139 141 147 148 139 127 120 114 106 101 99 95 93 88 79 70 61 51 48 47 46 47
191 191 192 192 193 197 197 199 202 197 193 188 183 183 177 171 166 171 173 167 174 160 135 135 121 121 113 106 122 116 114 124 111 96 102 110 114 126 156 174 165 157 102 67 76 86 90 89 84 80 79 79 84 91 95 97 100 106 116 124 128 139 144 143 144 150 156 159 147 134 131 122 105 103 108 102 93 84 75 63 53 50 48 47 47
197 196 199 201 201 202 203 206 206 203 204 200 194 194 195 193 188 191 191 189 201 190 172 172 146 139 109 100 126 121 130 138 129 130 118 107 133 149 169 180 174 184 185 172 65 81 92 95 90 85 83 79 76 78 82 90 98 99 100 103 107 120 136 145 146 153 168 178 173 158 148 140 120 109 115 111 98 89 81 68 56 51 49 48 47
201 200 201 206 208 209 210 213 210 209 213 209 205 204 209 213 211 212 205 202 220 222 212 209 189 183 179 132 112 117 155 160 153 159 153 144 168 188 178 170 182 197 185 186 201 147 81 98 103 94 88 84 79 74 74 83 93 98 98 99 100 101 113 136 146 154 167 177 174 167 158 150 139 124 126 120 105 97 89 76 60 53 51 49 48
207 205 205 208 213 215 218 219 216 218 219 216 217 216 219 224 225 228 223 211 215 225 226 222 224 220 213 217 221 219 201 208 208 186 173 176 188 208 205 190 200 205 200 199 196 204 230 126 122 118 103 92 91 84 77 79 82 90 94 95 97 94 94 111 135 153 163 169 165 160 158 155 150 140 135 131 118 111 101 85 68 58 53 50 48
218 214 211 213 217 219 223 224 223 225 225 223 226 227 227 229 230 232 231 224 217 220 229 232 240 239 230 234 225 227 235 235 234 223 220 220 216 216 213 222 231 221 210 216 217 209 214 227 198 156 138 80 109 108 85 83 74 77 83 85 92 93 93 97 108 142 163 168 163 155 155 156 154 149 145 147 136 125 114 98 78 65 58 52 49
226 224 220 219 221 224 227 228 228 229 231 230 232 234 234 232 230 233 234 232 228 224 227 233 246 251 246 248 240 236 239 239 240 232 233 242 240 236 235 233 234 238 229 224 237 233 218 230 229 198 243 276 251 179 123 101 85 78 80 73 76 84 94 101 89 99 155 166 167 161 157 156 157 155 155 159 151 136 126 111 92 76 65 56 50
228 229 228 225 224 227 232 234 233 232 235 236 235 234 236 233 230 232 233 234 234 228 228 228 233 238 240 247 251 257 259 253 247 236 233 238 242 245 247 241 231 235 237 230 232 238 234 235 234 203 224 264 271 230 197 178 149 99 103 90 72 71 86 107 108 101 177 187 182 173 162 158 163 165 164 168 161 148 139 127 112 90 73 61 52
228 230 232 230 228 229 233 236 236 235 237 237 235 233 233 232 231 232 232 233 232 230 231 226 221 226 225 232 243 249 262 268 259 244 231 221 225 238 244 243 235 230 232 235 233 232 235 231 232 220 215 251 264 252 263 238 204 190 151 128 100 81 86 110 132 144 197 225 208 194 179 171 175 174 168 172 170 160 152 144 133 112 86 69 56
231 232 235 235 233 231 232 236 236 235 236 235 235 235 233 230 230 231 232 231 227 230 234 226 220 225 218 220 229 230 243 257 247 234 226 212 207 216 233 241 235 233 236 239 236 231 235 231 231 232 221 230 239 249 284 285 239 240 254 221 143 124 109 118 141 161 193 220 225 216 199 188 188 183 176 178 181 173 164 158 151 139 109 80 63
235 234 236 237 236 232 230 234 234 234 237 237 237 237 235 232 230 229 229 225 219 227 237 229 223 222 218 221 220 223 235 234 220 219 219 220 225 225 224 232 235 240 244 245 244 238 236 235 236 238 233 233 233 236 263 277 267 265 260 260 260 192 157 134 142 164 200 219 221 225 220 209 200 188 186 187 188 185 175 172 171 166 142 100 75
239 237 237 237 236 232 228 231 232 232 234 238 241 244 245 242 238 232 228 222 213 221 237 236 232 228 225 225 221 227 233 216 207 223 228 223 231 235 233 241 250 252 253 249 248 245 242 239 239 240 239 242 248 246 241 245 260 266 254 252 261 255 236 195 172 165 205 229 227 228 228 226 219 200 194 194 198 196 186 185 185 181 171 133 94
242 240 239 239 237 233 228 227 228 228 231 235 241 247 249 246 243 236 230 226 218 218 233 240 241 240 236 232 234 241 233 207 205 224 239 235 235 239 238 243 249 252 255 251 247 245 246 244 241 241 239 240 247 251 243 235 247 255 251 256 262 262 265 258 238 203 208 235 235 235 232 233 235 221 204 198 206 204 193 196 197 191 186 165 129
245 243 241 238 236 234 229 225 223 225 230 235 239 244 246 243 241 238 233 232 227 221 226 237 243 245 243 240 241 243 235 225 225 232 244 243 240 240 240 241 240 241 245 248 247 245 247 249 245 241 241 240 242 246 245 239 237 237 246 265 270 265 270 271 263 244 226 232 239 240 237 237 240 236 219 203 210 212 201 201 203 198 194 187 164
249 245 243 240 236 234 228 221 219 221 228 234 238 242 245 243 241 242 239 236 235 227 222 230 237 240 244 246 245 243 241 240 242 245 251 252 247 241 241 241 237 236 240 249 251 248 252 259 251 241 242 243 242 246 247 242 238 236 244 257 261 260 264 269 272 265 244 229 236 240 239 241 243 240 231 217 215 216 209 206 207 205 200 198 188
252 248 248 246 242 236 226 219 220 223 229 236 241 242 244 245 244 246 245 241 241 235 224 225 233 237 241 247 249 246 246 247 245 244 247 253 251 242 238 237 234 237 242 249 255 254 253 259 261 249 245 244 242 247 250 247 240 237 244 252 252 251 253 259 268 269 259 241 234 239 241 244 245 242 235 226 221 219 214 210 209 209 206 205 202
253 248 246 246 246 238 226 221 223 227 232 238 243 245 244 245 246 247 247 246 246 245 236 228 231 237 238 241 245 246 246 246 244 240 240 245 250 248 242 237 238 248 259 259 255 257 252 250 257 254 246 246 244 245 252 255 249 240 247 253 248 246 248 249 253 256 257 251 240 241 248 252 253 250 239 229 226 221 214 214 214 211 209 209 209
247 238 234 236 242 240 232 227 227 229 234 238 243 246 247 247 248 247 247 248 248 249 247 240 235 237 238 238 239 241 243 244 243 241 238 240 246 249 247 244 246 252 263 264 256 255 255 252 254 253 247 246 246 246 250 257 259 253 253 253 250 252 254 250 246 245 251 256 251 246 250 256 260 262 249 233 231 226 215 215 218 215 212 211 213
236 230 229 230 233 236 233 231 231 232 234 239 244 248 251 251 250 249 249 250 250 250 251 248 241 237 238 240 240 240 243 245 245 243 240 240 244 249 249 248 251 250 252 258 259 255 254 256 258 255 249 244 243 247 249 255 261 260 257 255 254 257 259 254 249 246 250 256 256 249 248 253 260 268 262 243 235 232 223 218 218 219 217 214 216
230 228 227 232 238 241 238 233 232 233 233 237 241 246 251 254 254 253 252 251 251 251 252 251 248 243 241 241 242 242 242 241 243 244 243 243 245 251 254 252 254 256 249 251 259 258 256 258 257 250 245 243 244 248 248 251 257 258 256 256 255 253 255 255 249 248 251 253 255 250 246 250 256 264 270 262 249 241 231 224 221 222 223 220 220
236 234 231 236 247 251 250 245 239 235 234 232 231 232 238 246 254 258 257 255 253 253 252 252 251 250 247 242 241 242 243 241 242 245 246 245 244 248 255 256 255 256 254 252 253 252 254 252 245 242 242 240 240 241 237 238 247 250 245 250 255 250 249 250 244 246 251 251 254 250 244 247 252 258 268 273 268 258 244 235 229 224 225 227 225
242 241 240 242 246 247 248 250 246 241 239 236 232 230 230 234 243 252 256 255 254 252 250 249 250 251 252 251 246 244 244 243 245 249 251 250 247 245 250 254 255 254 253 253 250 246 247 241 236 239 239 234 231 226 223 229 240 243 234 240 253 250 245 248 246 247 250 249 251 250 246 247 250 254 261 265 268 265 257 251 242 228 223 228 229
242 241 242 242 241 239 238 241 240 238 238 238 239 238 233 231 233 240 248 250 250 250 249 249 250 250 252 253 251 247 245 244 247 253 257 256 251 247 246 246 250 255 255 253 252 250 247 237 233 238 235 228 225 220 221 227 231 237 236 241 253 253 246 249 253 253 252 251 251 249 248 250 252 256 257 256 259 260 259 260 251 234 224 226 229
238 238 239 239 238 237 238 237 235 234 236 238 239 237 235 235 233 234 238 241 244 246 246 247 248 250 252 251 251 250 247 245 245 249 254 256 252 249 247 244 244 251 257 258 256 254 249 238 234 239 236 225 222 223 223 223 228 243 252 251 255 256 250 249 254 256 253 253 252 248 249 251 253 256 258 255 253 253 254 258 252 238 230 227 226
235 237 237 238 238 238 238 237 235 235 238 241 240 237 238 239 237 235 235 237 239 240 239 241 244 246 248 248 251 253 249 244 243 242 245 250 251 249 247 245 243 244 251 259 261 259 253 243 239 242 239 230 227 230 227 227 235 249 259 260 260 262 253 246 250 255 253 252 251 249 248 250 251 254 258 257 253 251 251 253 250 240 235 233 229
235 238 239 238 237 236 236 236 234 233 237 241 241 239 240 241 240 238 237 236 236 237 236 237 240 242 243 243 247 251 250 246 243 241 239 242 246 249 248 246 244 243 244 252 259 259 253 248 246 243 241 240 240 240 239 240 245 252 260 263 262 265 260 246 247 251 254 254 254 252 250 250 252 253 255 256 254 251 253 254 251 243 244 248 243
237 240 242 241 238 236 236 237 236 234 234 237 239 241 243 243 242 241 240 237 236 236 236 235 236 239 242 243 243 246 248 246 244 243 242 242 242 244 245 245 244 243 242 245 253 257 255 252 252 246 241 242 244 248 250 251 252 256 263 263 259 262 264 255 250 252 255 258 259 257 253 252 253 254 255 256 254 253 254 256 252 249 254 262 257
242 242 242 243 243 239 237 240 243 241 237 237 240 243 244 244 244 243 242 241 238 235 235 236 236 237 240 242 242 243 244 244 244 243 242 242 241 241 241 241 242 242 241 242 248 255 257 256 256 251 243 238 242 248 252 255 258 259 259 259 259 260 262 259 255 254 256 259 260 259 255 253 253 255 256 257 256 255 255 256 253 251 255 259 257
251 249 246 245 245 241 238 239 242 242 240 238 240 243 244 245 245 244 244 244 242 238 237 237 236 235 238 241 242 242 241 241 243 242 241 241 239 239 239 239 238 238 240 241 245 252 256 257 257 255 250 242 241 245 248 253 261 264 260 256 257 258 259 258 255 253 255 256 259 259 256 253 252 253 256 257 256 256 256 256 254 254 256 256 253
255 252 250 247 245 243 239 238 239 241 241 239 240 241 243 245 244 244 246 246 244 242 240 240 239 237 237 241 243 243 241 239 240 240 241 241 240 240 240 240 239 237 238 240 242 247 252 255 257 255 253 249 246 245 245 249 258 264 260 255 254 254 253 253 254 254 254 254 257 257 255 254 253 252 254 257 257 257 257 256 256 256 258 258 255
256 253 250 248 247 246 244 243 243 244 243 241 241 242 243 244 243 245 251 253 252 250 246 244 244 243 242 241 242 244 244 243 243 243 241 241 241 241 241 242 242 240 239 239 240 244 247 252 254 253 252 252 251 249 247 247 252 257 257 251 250 250 249 249 250 253 256 255 254 255 253 252 253 253 253 254 256 257 257 256 255 256 259 259 257
258 256 252 248 246 245 245 246 246 247 248 247 244 244 246 247 246 247 251 256 260 261 258 252 249 248 247 247 246 247 247 246 245 245 244 242 242 242 242 242 243 245 246 244 243 243 245 249 252 253 253 253 253 253 250 248 248 249 252 250 244 244 245 246 245 248 253 254 251 251 251 249 249 250 252 253 253 255 256 255 254 254 257 260 260
253 254 254 252 249 247 245 246 248 249 251 250 246 244 245 248 249 250 251 252 255 260 262 260 257 254 251 249 249 248 248 248 246 246 247 246 244 242 242 243 242 244 247 247 247 245 245 248 250 253 254 254 254 254 252 250 248 245 250 254 250 244 243 244 243 243 247 251 250 250 250 250 249 248 249 251 252 252 253 254 253 252 254 258 260
253 251 250 250 250 249 246 245 247 248 248 248 247 245 244 244 246 247 249 251 250 253 257 259 260 260 256 253 251 249 248 248 248 246 247 248 247 244 242 244 244 243 244 246 246 246 246 249 251 252 254 254 255 253 250 251 252 247 248 253 253 250 245 244 245 243 243 247 246 245 247 250 251 250 249 250 250 250 251 252 252 252 253 255 258
248 251 252 253 253 252 250 248 247 248 248 247 248 247 245 245 245 245 247 249 249 250 252 253 255 257 258 256 253 252 252 252 251 250 248 247 248 247 246 246 247 246 245 245 246 246 246 249 251 252 254 254 253 251 249 247 246 245 245 247 250 254 252 248 248 243 242 246 245 241 242 245 247 248 246 245 246 247 247 248 248 249 251 253 255
244 245 247 250 254 256 257 257 255 254 253 249 246 246 248 249 248 248 249 250 251 252 252 251 252 252 253 254 253 254 254 255 255 255 256 256 255 254 250 246 247 248 248 247 246 245 246 249 251 251 252 253 251 250 248 245 243 244 244 241 243 252 257 256 253 245 238 241 244 240 240 244 248 248 246 245 246 246 246 246 246 246 247 250 253
251 249 247 247 249 250 253 256 257 257 257 257 256 256 256 255 253 253 253 253 254 256 256 255 256 254 252 252 254 256 257 256 255 256 258 259 260 260 257 253 249 248 249 250 249 247 247 248 248 248 249 250 249 249 248 249 250 250 247 244 243 248 252 253 254 254 246 237 238 240 239 241 245 247 247 248 248 247 245 246 247 247 246 248 251
257 255 254 252 252 251 251 251 253 256 257 257 260 262 262 260 259 257 256 254 253 253 255 256 257 257 255 255 256 258 258 259 261 262 261 259 259 259 259 259 257 252 249 250 251 252 249 247 247 247 247 249 251 252 251 252 254 253 250 249 249 247 246 246 250 255 257 248 240 239 239 239 242 246 248 250 249 248 247 248 251 251 250 249 249
260 258 257 257 256 256 255 255 254 255 257 257 259 261 263 263 263 262 262 260 258 255 254 254 256 257 257 258 257 257 257 259 261 264 264 264 263 261 259 259 258 256 253 251 251 251 250 250 250 248 247 248 250 253 253 253 255 254 251 251 252 248 244 246 246 247 255 259 253 244 240 238 239 244 248 250 251 252 255 256 254 252 251 248 247
265 263 261 259 258 258 258 259 258 258 258 259 259 260 260 262 264 265 265 265 264 262 260 258 257 257 257 257 258 257 258 258 259 260 262 265 267 268 266 263 260 259 257 255 253 252 250 249 249 250 251 252 251 253 255 255 254 253 252 254 256 248 239 247 256 252 248 255 257 253 247 241 235 240 248 252 251 254 259 261 257 254 252 248 246
276 273 269 265 263 260 258 259 260 261 261 262 262 262 262 262 262 264 264 265 266 266 265 264 263 262 261 260 260 260 259 259 260 261 262 264 266 269 270 270 267 264 262 259 257 255 253 250 249 250 251 252 252 254 257 258 256 253 252 255 259 258 253 260 269 266 256 256 259 257 253 247 236 237 247 251 251 253 258 261 259 255 252 249 246
283 280 275 273 273 270 265 261 260 260 260 262 264 264 264 263 262 262 263 264 265 266 267 267 267 267 266 265 265 265 264 263 262 262 262 263 263 264 265 267 268 269 268 266 263 260 258 256 255 254 253 253 253 254 255 256 256 255 253 253 259 264 263 264 267 264 259 260 259 255 253 251 243 240 247 250 249 251 253 256 257 252 249 249 247
285 281 274 269 269 271 271 270 266 261 259 260 261 262 261 260 260 260 262 264 266 267 267 268 268 268 268 268 268 268 269 268 267 266 265 265 265 265 264 263 264 265 266 267 268 267 265 264 263 261 260 260 258 257 255 253 252 253 253 252 252 253 253 253 255 256 256 257 258 254 251 251 245 242 248 251 248 248 247 248 251 250 246 247 248
290 287 281 273 269 266 266 269 272 269 263 259 258 256 256 256 257 258 260 262 263 265 267 268 269 270 271 271 271 272 272 272 271 271 271 271 270 270 270 268 267 265 263 263 264 266 266 266 266 265 265 265 264 262 261 258 253 251 252 253 248 241 242 245 249 255 256 254 256 257 254 253 248 242 245 249 249 251 247 244 247 250 247 244 245
299 295 291 283 276 271 268 268 268 268 267 262 258 255 254 253 253 253 253 254 255 260 265 269 271 273 274 274 274 274 274 274 275 275 274 274 273 272 272 272 271 269 267 265 264 263 263 264 265 266 267 267 266 265 264 264 262 257 253 253 250 247 247 245 246 255 259 254 254 257 256 256 253 245 241 244 247 251 250 245 246 248 246 241 240
313 303 296 290 284 277 271 268 265 265 267 267 261 252 246 243 243 243 245 249 255 262 268 273 276 277 278 279 280 279 278 278 276 275 274 272 270 269 268 269 268 268 269 269 267 264 263 263 264 265 265 266 266 267 267 267 267 263 259 256 253 250 249 248 247 253 256 253 254 254 252 253 254 252 248 245 244 248 251 251 250 249 248 243 238